Notices

What's New in latest Release from April 7th, 2021:

- Updated Glossary, including Speed of Maximum Gust, and Total Hourly Precipitation

- Updated national and regional climate services offices contacts and prices information

- Addition of station inventory lists for 1981-2010, 1971-2000, and 1961-1990 Normals.

If you haven't already, please take our survey and provide feedback about our website: https://eccc.sondage-survey.ca/f/LanguageSelection.aspx?s=442ca660-fcf1-47c0-95a9-59707d6fd709

Hourly Data Report for February 13, 2004

SHERBROOKE A
QUEBEC

45°26'00.000" N
71°41'00.000" W
241.40 m
7028124
71610
YSC

Download Data

Hourly Data (February 2004)
Hourly Data Report for February 13, 2004
TIME
LST
Temp Definition
°C
Dew Point Definition
°C
Rel Hum Definition
%
Precip. Amount Definition
mm

Wind Dir Definition
10's deg

Wind Spd Definition
km/h
Visibility Definition
km
Stn Press Definition
kPa
Hmdx Definition


Wind Chill Definition


Weather Definition


00:00 -10.7 -14.0 77   26 4 2.6 98.27   -13 Snow
01:00 -10.7 -14.0 77     0 2.6 98.20     Snow
02:00 -10.2 -13.4 77   20 4 3.2 98.13   -13 Snow
03:00 -7.5 -10.9 77   21 9 2.7 98.04   -12 Snow
04:00 -6.5 -10.2 75   23 15 9.7 98.00   -12 Snow
05:00 -6.9 -12.4 65   26 20 15.0 97.99   -14  
06:00 -7.1 -14.6 55   25 20 15.0 97.93   -14  
07:00 -7.7 -15.1 55   25 22 15.0 97.94   -15  
08:00 -6.6 -13.7 57   25 22 19.3 97.96   -14 Snow Showers
09:00 -6.1 -11.7 65   25 19 4.8 97.94   -13 Snow Showers
10:00 -5.5 -10.8 66   24 20 9.7 97.87   -12 Snow Showers
11:00 -4.8 -10.3 65   24 20 4.8 97.84   -11 Snow Showers
12:00 -3.9 -9.8 64   25 26 12.9 97.75   -11 Snow Showers
13:00 -3.5 -9.7 62   25 22 2.4 97.66   -10 Snow Showers
14:00 -2.4 -9.3 59   24 22 19.3 97.58   -9 Snow Showers
15:00 -2.0 -9.0 59   24 11 19.3 97.54   -6 Cloudy
16:00 -1.2 -8.9 56   25 17 19.3 97.46   -6 Snow Showers
17:00 -0.7 -9.5 51   25 20 24.1 97.45   -6 Snow Showers
18:00 -1.0 -9.8 51   26 15 15.0 97.48   -6  
19:00 -1.2 -9.6 53   25 19 15.0 97.50   -7  
20:00 -1.4 -9.3 55   25 20 15.0 97.51   -7 Snow
21:00 -1.8 -9.2 57   25 20 15.0 97.53   -8 Snow
22:00 -1.9 -9.3 57   25 22 15.0 97.51   -8 Snow
23:00 -2.1 -9.2 58   23 19 15.0 97.51   -8 Snow

Notes on Data Quality.

Legend

  • E = Estimated
  • M = Missing
  • NA = Not Available*
  • [empty] = Indicates an unobserved value
Date modified: